Location: Bangkok
(13.7500°N, 100.5170°E)
Time: 07:13:24
(UTC+07:00)

Hubble Space Telescope - Visible Passes

Search period start: 28 November 2014 00:00
Search period end: 08 December 2014 00:00
Orbit: 546 x 549 km, 28.5° (Epoch: 26 November)

Date Brightness Start Highest point End Pass type
(mag) Time Alt. Az. Time Alt. Az. Time Alt. Az.
30 Nov 3.5 04:33:14 10° NNE 04:33:14 10° NNE 04:33:22 10° NNE visible
01 Dec 3.5 04:26:10 11° NE 04:26:10 11° NE 04:26:31 10° NE visible
02 Dec 3.6 04:19:07 12° NE 04:19:07 12° NE 04:19:37 10° NE visible
02 Dec 1.5 05:54:55 10° NW 05:58:56 45° NNE 06:02:57 10° E visible
03 Dec 3.6 04:12:04 12° NE 04:12:04 12° NE 04:12:39 10° ENE visible
03 Dec 1.0 05:47:36 12° NW 05:51:24 64° NNE 05:55:33 10° ESE visible
03 Dec 3.3 19:30:55 10° S 19:31:48 12° SSE 19:31:48 12° SSE visible
04 Dec 3.7 04:05:02 13° ENE 04:05:02 13° ENE 04:05:35 10° ENE visible
04 Dec 0.8 05:40:34 16° WNW 05:43:51 89° SSW 05:48:02 10° ESE visible
04 Dec 2.7 19:22:17 10° SSW 19:24:48 19° SSE 19:24:48 19° SSE visible
05 Dec 3.9 03:58:01 12° ENE 03:58:01 12° ENE 03:58:25 10° E visible
05 Dec 1.0 05:33:33 20° WNW 05:36:15 61° SSW 05:40:23 10° SE visible
05 Dec 2.1 19:14:05 10° SSW 19:17:38 27° SSE 19:17:48 27° SE visible
06 Dec 4.0 03:51:00 11° E 03:51:00 11° E 03:51:09 10° E visible
06 Dec 1.5 05:26:32 23° W 05:28:38 41° SSW 05:32:35 10° SE visible
06 Dec 1.5 19:06:07 10° SW 19:10:00 39° SSE 19:10:47 35° ESE visible
07 Dec 2.1 05:19:31 22° WSW 05:21:01 28° SSW 05:24:38 10° SSE visible
07 Dec 1.0 18:58:17 10° SW 19:02:23 58° SSE 19:03:46 37° E visible
